User: anonymous   Login
Location: Newark
(44.6768°N, 22.5302°E)
Time: 11:39:10
(UTC+00:00)
Language:

UNISAT 6 - Orbit

View from above orbital plane
View from above orbital plane
View from above satellite
View from above satellite

Ground track
Ground track

The orbit data is extracted from the following two-line orbital elements,

1 40012U 14033C   22176.11815235  .00001149  00000-0  17362-3 0  9999
2 40012  97.6618   3.6723 0058572 133.2474 227.3646 14.74925169431116
Epoch (UTC): 25 June 2022 02:50:08
Eccentricity: 0.0058572
inclination: 97.6618°
perigee height: 604 km
apogee height: 686 km
right ascension of ascending node: 3.6723°
argument of perigee: 133.2474°
revolutions per day: 14.74925169
mean anomaly at epoch: 227.3646°
orbit number at epoch: 43111

The dashed part of the orbit path shows where the satellite is in the earth's shadow,  

DLR